BEIDOU-2 IGSO-1 (C06)

Last updated on Mon Oct 20 2025 00:03:24 GMT+0000 (Coordinated Universal Time)

1 36828U 10036A 25291.61576332 -.00000094 00000+0 00000+0 0 9991 2 36828 54.2762 165.1482 0050797 216.6830 332.9876 1.00292446 55675
UTC large
Height (km)
Speed (km/s)
/
Latitude / Longitude
Inclination (degrees)
Orbital Period (minutes)
Azimuth
Elevation
Range (km)
Doppler Factor

Next 0 passes for location: London (51.5072 / 0.1276)

Sorry there are no passes over London.